When you browse on this site, cookies collect data to enhance your experience and personalize the content and advertising you see.
Visit our Privacy Policy to learn more. By continuing to use the site, you agree to this use of cookies and data.
  • In Hungary
  • List of Countries
  • For 7 days
  • Water Temperature
  • Satellite Maps
  • Weather Map
  • News
  • Weather Widgets
  • user-avatar
    Login

    Hourly Weather Artyom

    Today, 18 March, Monday

    Time Temperature Precipitation Wind Pressure Humidity
    00:00 +6°C° 0 mm 14 mps 756 mmHg 87%
    01:00 +5°C° 0 mm 14 mps 757 mmHg 86%
    02:00 +5°C° 0 mm 14 mps 757 mmHg 86%
    03:00 +5°C° 0 mm 15 mps 757 mmHg 86%
    04:00 +5°C° 0 mm 16 mps 758 mmHg 85%
    05:00 +5°C° 0 mm 16 mps 759 mmHg 85%
    06:00 +5°C° 0 mm 17 mps 759 mmHg 84%
    07:00 +5°C° 0 mm 17 mps 760 mmHg 82%
    08:00 +5°C° 0 mm 17 mps 760 mmHg 80%
    09:00 +5°C° 0 mm 18 mps 761 mmHg 78%
    10:00 +5°C° 0 mm 17 mps 761 mmHg 77%
    11:00 +5°C° 0 mm 17 mps 762 mmHg 76%
    12:00 +6°C° 0 mm 16 mps 762 mmHg 74%
    13:00 +6°C° 0 mm 16 mps 762 mmHg 74%
    14:00 +6°C° 0 mm 16 mps 763 mmHg 73%
    15:00 +5°C° 0 mm 17 mps 763 mmHg 73%
    16:00 +5°C° 0 mm 17 mps 763 mmHg 74%
    17:00 +5°C° 0 mm 16 mps 764 mmHg 75%
    18:00 +5°C° 0 mm 16 mps 764 mmHg 76%
    19:00 +5°C° 0 mm 15 mps 765 mmHg 77%
    20:00 +5°C° 0 mm 15 mps 765 mmHg 77%
    21:00 +5°C° 0 mm 15 mps 765 mmHg 78%
    22:00 +5°C° 0 mm 14 mps 765 mmHg 79%
    23:00 +5°C° 0 mm 14 mps 766 mmHg 79%

    Tomorrow, 19 March, Tuesday

    Time Temperature Precipitation Wind Pressure Humidity
    00:00 +5°C° 0 mm 14 mps 766 mmHg 79%
    01:00 +5°C° 0 mm 14 mps 766 mmHg 80%
    02:00 +5°C° 0 mm 14 mps 766 mmHg 80%
    03:00 +5°C° 0 mm 14 mps 766 mmHg 80%
    04:00 +5°C° 0 mm 13 mps 766 mmHg 80%
    05:00 +5°C° 0 mm 13 mps 766 mmHg 80%
    06:00 +5°C° 0 mm 13 mps 766 mmHg 80%
    07:00 +5°C° 0.1 mm 13 mps 767 mmHg 79%
    08:00 +5°C° 0.1 mm 13 mps 767 mmHg 78%
    09:00 +5°C° 0.1 mm 13 mps 767 mmHg 77%
    10:00 +5°C° 0.4 mm 13 mps 767 mmHg 77%
    11:00 +5°C° 0.4 mm 13 mps 767 mmHg 77%
    12:00 +5°C° 0.4 mm 14 mps 767 mmHg 77%
    13:00 +5°C° 0.7 mm 13 mps 767 mmHg 78%
    14:00 +5°C° 0.7 mm 13 mps 767 mmHg 78%
    15:00 +5°C° 0.7 mm 13 mps 767 mmHg 78%
    16:00 +4°C° 0.5 mm 13 mps 767 mmHg 79%
    17:00 +4°C° 0.5 mm 12 mps 767 mmHg 80%
    18:00 +4°C° 0.5 mm 12 mps 767 mmHg 81%
    19:00 +4°C° 0.9 mm 11 mps 768 mmHg 82%
    20:00 +4°C° 0.9 mm 11 mps 768 mmHg 83%
    21:00 +4°C° 0.9 mm 11 mps 768 mmHg 84%
    22:00 +5°C° 1.1 mm 10 mps 768 mmHg 84%
    23:00 +3°C° 1.1 mm 10 mps 768 mmHg 84%

    Day after tomorrow, 20 March, Wednesday

    Time Temperature Precipitation Wind Pressure Humidity
    00:00 +3°C° 1.1 mm 10 mps 767 mmHg 83%
    01:00 +3°C° 0.9 mm 10 mps 767 mmHg 83%
    02:00 +3°C° 0.9 mm 10 mps 767 mmHg 82%
    03:00 +3°C° 0.9 mm 10 mps 767 mmHg 82%
    04:00 +3°C° 0.8 mm 10 mps 767 mmHg 82%
    05:00 +3°C° 0.8 mm 10 mps 767 mmHg 81%
    06:00 +3°C° 0.8 mm 9 mps 767 mmHg 81%
    07:00 +3°C° 0.7 mm 9 mps 767 mmHg 80%
    08:00 +3°C° 0.7 mm 9 mps 767 mmHg 80%
    09:00 +3°C° 0.7 mm 9 mps 767 mmHg 79%
    10:00 +5°C° 0.6 mm 9 mps 767 mmHg 78%
    11:00 +5°C° 0.6 mm 8 mps 767 mmHg 77%
    12:00 +5°C° 0.6 mm 8 mps 767 mmHg 76%
    13:00 +5°C° 0.5 mm 8 mps 767 mmHg 76%
    14:00 +5°C° 0.5 mm 8 mps 766 mmHg 76%
    15:00 +5°C° 0.5 mm 7 mps 766 mmHg 76%
    16:00 +5°C° 0.4 mm 7 mps 766 mmHg 75%
    17:00 +5°C° 0.4 mm 7 mps 766 mmHg 74%
    18:00 +5°C° 0.4 mm 6 mps 766 mmHg 73%
    19:00 +5°C° 0.3 mm 6 mps 766 mmHg 73%
    20:00 +7°C° 0.3 mm 6 mps 767 mmHg 72%
    21:00 +7°C° 0.3 mm 5 mps 767 mmHg 72%
    22:00 +7°C° 0.2 mm 5 mps 767 mmHg 72%
    23:00 +7°C° 0.2 mm 5 mps 767 mmHg 72%

    21 March, Thursday

    Time Temperature Precipitation Wind Pressure Humidity
    00:00 +7°C° 0.2 mm 5 mps 766 mmHg 72%
    01:00 +7°C° 0 mm 5 mps 766 mmHg 73%
    02:00 +6°C° 0 mm 4 mps 766 mmHg 74%
    03:00 +6°C° 0 mm 4 mps 766 mmHg 75%
    04:00 +6°C° 0 mm 4 mps 766 mmHg 77%
    05:00 +6°C° 0 mm 4 mps 766 mmHg 78%
    06:00 +7°C° 0 mm 3 mps 766 mmHg 80%
    07:00 +7°C° 0 mm 3 mps 767 mmHg 77%
    08:00 +8°C° 0 mm 3 mps 767 mmHg 74%
    09:00 +8°C° 0 mm 3 mps 767 mmHg 72%
    10:00 +9°C° 0 mm 3 mps 767 mmHg 69%
    11:00 +9°C° 0 mm 2 mps 767 mmHg 67%
    12:00 +10°C° 0 mm 2 mps 767 mmHg 65%
    13:00 +10°C° 0 mm 2 mps 766 mmHg 65%
    14:00 +10°C° 0 mm 2 mps 766 mmHg 65%
    15:00 +12°C° 0 mm 1 mps 766 mmHg 65%
    16:00 +10°C° 0 mm 2 mps 766 mmHg 67%
    17:00 +10°C° 0 mm 2 mps 766 mmHg 70%
    18:00 +10°C° 0 mm 2 mps 766 mmHg 72%
    19:00 +10°C° 0 mm 2 mps 766 mmHg 74%
    20:00 +10°C° 0 mm 2 mps 766 mmHg 75%
    21:00 +10°C° 0 mm 2 mps 766 mmHg 77%
    22:00 +10°C° 0 mm 2 mps 766 mmHg 78%
    23:00 +10°C° 0 mm 2 mps 766 mmHg 78%

    22 March, Friday

    Time Temperature Precipitation Wind Pressure Humidity
    00:00 +10°C° 0 mm 3 mps 765 mmHg 79%
    01:00 +10°C° 0 mm 3 mps 765 mmHg 80%
    02:00 +10°C° 0 mm 3 mps 765 mmHg 81%
    03:00 +10°C° 0 mm 4 mps 764 mmHg 82%
    04:00 +10°C° 0 mm 4 mps 764 mmHg 84%
    05:00 +8°C° 0 mm 4 mps 764 mmHg 85%
    06:00 +8°C° 0 mm 4 mps 764 mmHg 87%
    07:00 +9°C° 0 mm 5 mps 764 mmHg 82%
    08:00 +10°C° 0 mm 6 mps 764 mmHg 77%
    09:00 +11°C° 0 mm 6 mps 764 mmHg 73%
    10:00 +11°C° 0 mm 6 mps 764 mmHg 70%
    11:00 +12°C° 0 mm 7 mps 764 mmHg 68%
    12:00 +12°C° 0 mm 7 mps 764 mmHg 65%
    13:00 +12°C° 0 mm 7 mps 764 mmHg 65%
    14:00 +12°C° 0 mm 7 mps 763 mmHg 65%
    15:00 +14°C° 0 mm 7 mps 763 mmHg 64%
    16:00 +11°C° 0.1 mm 7 mps 763 mmHg 69%
    17:00 +10°C° 0.1 mm 7 mps 763 mmHg 74%
    18:00 +8°C° 0.1 mm 6 mps 764 mmHg 79%
    19:00 +7°C° 0.1 mm 8 mps 764 mmHg 79%
    20:00 +7°C° 0.1 mm 9 mps 765 mmHg 79%
    21:00 +6°C° 0.1 mm 11 mps 765 mmHg 79%
    22:00 +6°C° 0 mm 11 mps 765 mmHg 79%
    23:00 +6°C° 0 mm 11 mps 766 mmHg 79%

    23 March, Saturday

    Time Temperature Precipitation Wind Pressure Humidity
    00:00 +6°C° 0 mm 11 mps 766 mmHg 79%
    01:00 +6°C° 0.2 mm 11 mps 766 mmHg 79%
    02:00 +6°C° 0.2 mm 11 mps 766 mmHg 78%
    03:00 +4°C° 0.2 mm 11 mps 766 mmHg 77%
    04:00 +4°C° 0.7 mm 11 mps 766 mmHg 77%
    05:00 +4°C° 0.7 mm 11 mps 767 mmHg 76%
    06:00 +4°C° 0.7 mm 11 mps 767 mmHg 75%
    07:00 +4°C° 0.8 mm 11 mps 767 mmHg 74%
    08:00 +4°C° 0.8 mm 11 mps 767 mmHg 73%
    09:00 +4°C° 0.8 mm 11 mps 768 mmHg 72%
    10:00 +4°C° 0.6 mm 11 mps 767 mmHg 70%
    11:00 +4°C° 0.6 mm 11 mps 767 mmHg 69%
    12:00 +4°C° 0.6 mm 11 mps 767 mmHg 67%
    13:00 +4°C° 0.2 mm 11 mps 766 mmHg 66%
    14:00 +6°C° 0.2 mm 11 mps 766 mmHg 64%
    15:00 +6°C° 0.2 mm 11 mps 766 mmHg 62%
    16:00 +6°C° 0.1 mm 10 mps 766 mmHg 61%
    17:00 +6°C° 0.1 mm 9 mps 766 mmHg 61%
    18:00 +6°C° 0.1 mm 8 mps 766 mmHg 60%
    19:00 +6°C° 0 mm 7 mps 766 mmHg 58%
    20:00 +6°C° 0 mm 7 mps 766 mmHg 57%
    21:00 +7°C° 0 mm 6 mps 766 mmHg 55%
    22:00 +7°C° 0 mm 6 mps 765 mmHg 58%
    23:00 +5°C° 0 mm 6 mps 765 mmHg 60%
    Show more